Location: ??
(34.9628°N, 135.4113°E)
Time: 04:21:27
(UTC+00:00)

Daily predictions for brighter satellites

Satellite Brightness Start Highest point End
(mag) Time Altitude Azimuth Time Altitude Azimuth Time Altitude Azimuth
H-2A R/B 3.1 09:17:18 10° ESE 09:21:13 24° ENE 09:25:13 10° NNE
Cosmos 1603 3.8 09:15:53 10° NNW 09:21:28 58° ENE 09:26:58 10° SE
USA 116 4.0 09:18:50 10° NNE 09:22:24 44° E 09:26:22 10° S
Okean 2 Rocket 4.2 09:19:19 10° SE 09:22:54 24° E 09:26:29 10° NE
USA 234 4.4 09:19:22 10° ENE 09:24:01 20° ESE 09:28:38 10° SSE
Meteor 1-21 4.3 09:25:10 10° N 09:30:40 55° E 09:36:07 10° SSE
Cosmos 2233 Rocket 4.3 09:24:55 10° SSW 09:31:09 73° W 09:37:21 10° N
YAOGAN 1 2.6 09:29:55 10° SSE 09:34:08 58° ENE 09:38:24 10° N
Okean-O 2.6 09:30:19 10° SSE 09:34:45 86° ENE 09:39:12 10° NNW
ISS -1.6 09:32:24 10° W 09:35:14 24° NW 09:38:04 10° NNE
Milstar 3 Cent rocket 3.7 09:28:51 10° SW 09:36:20 31° S 09:40:46 12° ESE
Shenzhou-11 Module 3.3 09:40:30 10° S 09:41:41 13° SE 09:41:47 13° SE
DELTA 2 R/B (1) 3.6 09:42:54 10° WNW 09:48:28 87° SSW 09:52:59 16° ESE
Cosmos 2034 Rocket 4.5 09:43:39 10° SSE 09:49:26 38° E 09:55:13 10° NNE
CZ-2D R/B 4.1 09:45:43 10° S 09:49:31 54° W 09:53:19 10° NNW
Cosmos 1025 Rocket 3.9 09:49:53 10° NNE 09:53:43 29° ENE 09:56:33 15° SE
ARGOS 3.6 09:49:52 10° SE 09:54:49 40° ENE 09:59:48 10° N
ATLAS 2AS CENTAUR R/B 3.7 09:50:24 10° SSE 09:56:50 29° ESE 10:03:23 10° NE
CZ-2C R/B 0.8 09:53:14 10° W 09:56:56 89° NNE 09:58:50 25° E
Cosmos 2298 Rocket 4.0 09:53:33 10° S 09:58:49 68° ESE 10:04:07 10° NNE
CZ-2C R/B 3.1 09:55:18 10° SSE 10:00:27 83° ENE 10:05:57 10° N
MOS 1 Rocket 2.9 09:56:32 10° NNE 10:00:53 71° E 10:05:08 10° S
Cosmos 2084 Rocket 4.0 09:57:48 10° NW 10:02:14 63° WSW 10:06:44 10° SSE
CZ-2C R/B 3.2 09:59:17 10° NNE 10:04:26 37° E 10:09:34 10° SSE
Cosmos 2151 Rocket 3.7 10:00:20 10° SSE 10:04:37 50° E 10:08:57 10° NNE
Cosmos 372 Rocket 4.4 09:59:43 10° SSW 10:04:56 69° WNW 10:10:09 10° NNE
CENTAUR R/B 4.2 09:59:20 10° N 10:06:02 27° NE 10:10:14 19° E
IRIS 4.5 10:04:27 10° WSW 10:08:30 66° NNW 10:09:46 29° NE
GOES 2 Rocket 4.0 10:05:30 10° SW 10:09:11 30° S 10:10:40 24° SE
SJ-11-01 4.3 10:10:15 10° SSE 10:14:58 85° WSW 10:19:42 10° NNW
HJ-1C 3.5 10:13:43 10° S 10:16:59 70° W 10:20:16 10° NNW
Cosmos 1844 3.6 10:14:05 10° S 10:19:45 68° ESE 10:25:23 10° NNE
Cosmos 1867 3.5 10:16:32 10° NNW 10:22:01 80° ENE 10:25:19 25° SE
Cosmos 1844 Rocket 2.6 10:17:37 10° SSW 10:23:10 88° WNW 10:28:47 10° NNE
USA 238 DEB 4.4 10:16:45 10° NNW 10:23:34 41° NE 10:26:37 29° E
USA 238 4.4 10:16:52 10° NNW 10:23:40 41° NE 10:26:41 29° E
Cosmos 1975 Rocket 4.4 10:19:44 10° NNW 10:23:46 39° W 10:27:47 10° SSW
Cosmos 1674 4.3 10:21:18 10° NNE 10:23:02 21° NE 10:23:02 21° NE
Cosmos 2150 Rocket 4.3 10:22:30 10° SSW 10:27:49 70° WNW 10:33:15 10° NNE
Cosmos 1125 Rocket 3.4 10:25:35 10° SSW 10:30:52 81° ESE 10:36:13 10° NNE
Cosmos 2285 Rocket 3.9 10:24:58 10° S 10:31:10 66° ESE 10:37:27 10° NNE
Exosat Rocket 3.5 10:26:31 10° SSW 10:32:39 76° ESE 10:37:42 10° NNE
MetOp-A 4.4 10:34:32 41° E 10:35:20 44° ENE 10:40:24 10° N
Resurs 01 Rocket 4.0 10:44:41 11° NNE 10:44:41 11° NNE 10:45:02 10° NNE
DMSP B5D2-2 3.9 10:38:34 10° NNE 10:43:52 75° ESE 10:49:08 10° S
MOS 1 4.2 10:44:23 46° SE 10:45:55 63° ENE 10:51:34 10° N
Cosmos 1092 Rocket 4.1 10:41:57 10° N 10:47:55 50° E 10:48:28 49° E
NOSS 3-2 (A) 4.1 10:42:43 10° NNW 10:50:30 67° ENE 10:53:38 41° ESE
USA 186 3.5 10:52:24 28° NNW 10:52:24 28° NNW 10:54:05 10° NNW
Centaur D-1AR AC-40 3.9 10:44:30 10° WSW 10:53:59 24° SSW 10:55:53 20° S
Cosmos 468 4.4 10:48:56 10° NNW 10:54:17 85° ENE 10:55:12 62° SSE
Okean 1 Rocket 3.3 10:58:49 61° N 10:58:49 61° N 11:02:34 10° N
H-2A R/B 3.6 10:56:06 10° SSW 11:00:27 31° W 11:04:55 10° NW
Cosmos 1048 Rocket 4.0 10:58:56 10° NNW 11:04:17 82° WSW 11:04:54 70° S
SJ-6B 4.3 11:07:01 30° NNW 11:07:01 30° NNW 11:09:04 10° NNW
USA 234 3.2 11:02:07 17° NE 11:07:24 86° NW 11:13:57 10° SW
Ariane Rocket 3.7 11:17:59 46° SW 11:18:50 51° W 11:23:46 10° NNW
NOSS 3-4 (A) 3.6 11:19:02 10° SW 11:24:49 64° WNW 11:30:55 10° NNE
NOSS 3-4 (C) 3.6 11:19:08 10° SW 11:24:55 65° WNW 11:31:01 10° NNE
NOSS 3-2 (C) 4.0 11:18:38 10° NNW 11:26:28 72° ENE 11:27:08 69° E
CZ-2C R/B 4.2 11:33:05 10° W 11:33:11 11° W 11:33:11 11° W
Meteor 2-5 Rocket 4.5 11:38:28 10° NNW 11:42:51 50° NW 11:42:51 50° NW
ATLAS 2AS CENTAUR R/B 3.5 11:39:38 10° SW 11:47:23 59° NW 11:55:13 10° NNE
